sat.trackr.live / text

‹ back to catalog

LEMUR-2-STAR-FOX

NORAD 62696 · 2025-009CR

PAYLOAD ACTIVE UNKNOWN

§ Identity

Operator
Country
US
Launch date
2025-01-14
Launch site
AFWTR
Launch vehicle
Mass (kg)
RCS (m²)

Purposes: earth_obs

External: N2YO · Heavens-Above · Gunter

§ Orbital elements

Epoch: 2026-09-19T11:48:43.525152Z

Period
95.77 min
Inclination
97.6885°
Eccentricity
0.0003365
Mean motion
15.03586690 rev/d
Perigee alt
553.5 km
Apogee alt
558.2 km
Semi-major
6,934.0 km
B*
3.4248e-4
RAAN
343.4465°
Arg perigee
124.7226°
Mean anomaly
235.4317°
Rev number
9,172

§ Raw data

LEMUR-2-STAR-FOX1 62696U 25009CR  26262.49217043  .00004620  00000+0  34248-3 0  99982 62696  97.6885 343.4465 0003365 124.7226 235.4317 15.03586690 91721

JSON: /api/v1/satellites/62696 · /tle

For live sub-satellite position, see the globe view (requires WebGL).

§ Visibility from observer

Set your observer location to see the next 7 days of passes ≥ 10°. The values pass through the URL so the page stays shareable.

No JS? Fill the form by hand. The geolocation button needs JavaScript.

§ Radio — SatNOGS DB

ModeDescriptionDownlinkUplink
FM Telemetry 400.580 MHz

1 transmitter · refreshed weekly from db.satnogs.org